Flag for Brazil Weather past 2 weeks in Joinville, Santa Catarina, Brazil

Now
63 °F

Partly cloudy.


Feels Like: 63 °F
Forecast: 70 / 83 °F
Wind: 5 mph from East

Location: Curitiba Aeroporto

Current Time: Mar 2, 2015 at 1:34:59 AM

Latest Report: Mar 2, 2015 at 1:00 AM


Visibility: N/A

Pressure: 30.18 "Hg

Humidity: 88%

Dew point: 59 °F

Location of JoinvilleLocation

Historic Weather in Joinville — Graph

°F

Joinville temperature yesterday

Maximum temperature yesterday: 73 °F (at 1:00 PM)
Minimum temperature yesterday: 59 °F (at 4:00 AM)
Average temperature yesterday: 66 °F

Past Weeks' High & Low Weather Summary

 TemperatureHumidityPressure
High86 °F (Feb 27, 2:00 PM)100% (Feb 18, 2:00 AM)30.24 "Hg (Feb 18, 2:00 AM)
Low34 °F (Feb 18, 7:00 PM)38% (Feb 27, 2:00 PM)29.86 "Hg (Feb 18, 4:00 PM)
Average69 °F82%30.08 "Hg
* Reported Feb 15 2:00 AM — Mar 2 1:00 AM, Joinville, Weather by CustomWeather, © 2015

Note: Actual official high and low records may vary slightly from our data, if they occured in-between our weather recording intervals... More about our weather records

Advertising

Joinville weather history for previous 24 hours

 ConditionsComfort  
Time TempWeatherWind HumidityBarometerVisibility
1:00 AM
Mon, Mar 2
63 °FPartly cloudy.5 mph88%30.18 "HgN/A
12:00 AM64 °FPassing clouds.8 mph83%30.21 "HgN/A
11:00 PM
Sun, Mar 1
64 °FMostly cloudy.7 mph83%30.21 "HgN/A
10:00 PM64 °FLight rain. Passing clouds.9 mph88%30.21 "HgN/A
9:00 PM64 °FPassing clouds.10 mph88%30.18 "HgN/A
8:00 PM64 °FDrizzle. Mostly cloudy.14 mph88%30.15 "Hg4 mi
7:00 PM64 °FPassing clouds.14 mph88%30.15 "HgN/A
6:00 PM68 °FPassing clouds.12 mph73%30.15 "HgN/A
5:00 PM72 °FPartly sunny.17 mph65%30.15 "HgN/A
4:00 PM73 °FPartly sunny.13 mph57%30.15 "HgN/A
3:00 PM72 °FPartly sunny.15 mph61%30.18 "HgN/A
2:00 PM73 °FPartly sunny.13 mph53%30.18 "HgN/A
1:00 PM73 °FPartly sunny.10 mph53%30.21 "HgN/A
12:00 PM72 °FPartly sunny.9 mph61%30.24 "HgN/A
11:00 AM72 °FPartly sunny.9 mph65%30.24 "HgN/A
10:00 AM68 °FPartly sunny.13 mph69%30.24 "HgN/A
9:00 AM66 °FScattered clouds.10 mph68%30.21 "HgN/A
8:00 AM64 °FScattered clouds.9 mph78%30.21 "HgN/A
7:00 AM59 °FPassing clouds.10 mph94%30.18 "HgN/A
6:00 AM59 °FPartly sunny.9 mph94%30.18 "HgN/A
5:00 AM59 °FLow clouds.9 mph94%30.15 "HgN/A
4:00 AM59 °FPassing clouds.5 mph94%30.15 "HgN/A
3:00 AM61 °FLow clouds.15 mph94%30.15 "HgN/A
2:00 AM63 °FLow clouds.12 mph88%30.18 "HgN/A
1:00 AM63 °FLight rain. Low clouds.12 mph94%30.18 "Hg3 mi
Weather by CustomWeather, © 2015

See weather overviewHow to use our weather pages